Regional Weather Roundup
Issued by NWS

Home | Current Version | Previous Version | Graphics & Text | Print | Product List | Glossary On
Versions: 1 2 3 4 5 6 7 8 9 10 11 12 13 14 15 16 17 18 19 20 21 22 23 24 25 26 27 28 29 30 31 32 33 34 35 36 37 38 39 40 41 42 43 44 45 46 47 48 49 50
000
ASUS45 KSLC 070310
RWRUT

UTAH REGIONAL WEATHER ROUNDUP
NATIONAL WEATHER SERVICE SALT LAKE CITY UT
900 PM MDT MON JUL 06 2015

UTZ001>011-023>025-070400-

NORTHERN UTAH

CITY           SKY/WX    TMP DP  RH WIND       PRES   REMARKS
BRIGHAM CITY   PTCLDY    78  51  40 CALM      30.05F
HILL AFB       PTCLDY    79  51  36 NW6       30.08S
LOGAN          CLEAR     73  56  54 CALM      30.07S
OGDEN          PTCLDY    79  52  38 N6        30.05S
PROVO AIRPORT  MOCLDY    73  48  40 CALM      30.10R
SALT LAKE CITY MOCLDY    79  55  43 S12       30.04S
VERNAL         CLOUDY    66  51  58 N14       30.14F
WENDOVER       PTCLDY    81  48  32 NE14      30.06R
HEBER CITY     CLOUDY    72  46  40 SE3       30.14S
WEST JORDAN    CLEAR     73  54  49 S10       30.08S

$$

UTZ012>022-026-027-070400-

SOUTHERN/CENTRAL UTAH

CITY           SKY/WX    TMP DP  RH WIND       PRES   REMARKS
BLANDING       CLOUDY    70  53  54 CALM      30.22R
BRYCE CANYON   CLOUDY    54  50  86 NW13      30.32S
CEDAR CITY     CLOUDY    66  56  70 S5        30.17F
DELTA          CLOUDY    76  45  33 MISG      30.09F
HANKSVILLE     CLOUDY    77  45  31 W8        30.11S
MILFORD        CLOUDY    72  47  40 SW15      30.11F
MOAB/CYNLANDS  LGT RAIN  73  54  51 N10       30.07R
PRICE          MOCLDY    70  49  47 N3        30.17F
ST GEORGE      CLOUDY    86  50  28 NE14      30.01S
KANAB          MOCLDY    66  57  72 E7        30.21F

$$

REGIONAL REPORTS     COLORADO/ARIZONA

CITY           SKY/WX    TMP DP  RH WIND       PRES   REMARKS
CRAIG, CO      HVY RAIN  60  53  77 W7        30.19R
GRAND JUNCTION CLOUDY    75  45  34 SW17G24   30.09R
RIFLE          CLOUDY    74  56  53 SW5       30.10S
MONTROSE       MOCLDY    76  49  38 W3        30.14S
CORTEZ         CLEAR     70  53  54 E3        30.15R
PAGE, AZ       CLOUDY    75  54  47 NW6       30.10F
GRAND CANYON   CLOUDY    63  50  62 NE3       30.25F
KINGMAN        MOCLDY    79  59  50 N3        30.03R
FLAGSTAFF      CLEAR     65  51  60 NW5       30.30R

$$

REGIONAL REPORTS    NEVADA/IDAHO/WYOMING

CITY           SKY/WX    TMP DP  RH WIND       PRES   REMARKS
LAS VEGAS, NV  TSTM      79  62  56 S12       29.93R
ELY            MOCLDY    69  41  36 SW6       30.20F
ELKO           PTCLDY    73  49  42 SE15G23   30.10R
POCATELLO, ID  PTCLDY    74  49  41 E5        30.07S
BURLEY         PTCLDY    77  51  40 N8        30.02S
EVANSTON, WY   MOCLDY    61  48  62 E16       30.26R
ROCK SPRINGS   LGT RAIN  55  53  93 E14       30.28F
KEMMERER       MOCLDY    55  52  88 E6        30.30R

$$


USA.gov is the U.S. government's official web portal to all federal, state and local government web resources and services.